LXAVO ELLX-ELLX

Flight info

Callsign LXAVO
Flight time 0h 7m
Altitude 2000
Route VFR
Aircraft P28A/L-V/N

Departure

Time 2026-04-27 18:24
Airport Luxembourg-Findel International Airport (ELLX)

Arrival

Time 2026-04-27 18:31
Airport Luxembourg-Findel International Airport (ELLX)
Time Latitude Longitude Altitude Speed Heading
2026-04-27 18:07 49.62381 6.19460 1182 ft 0 kts 240°
2026-04-27 18:10 49.62381 6.19459 1182 ft 0 kts 240°
2026-04-27 18:11 49.62381 6.19460 1182 ft 0 kts 240°
2026-04-27 18:16 49.62364 6.19416 1182 ft 6 kts 241°
2026-04-27 18:16 49.62340 6.19413 1182 ft 5 kts 149°
2026-04-27 18:16 49.62292 6.19457 1182 ft 9 kts 151°
2026-04-27 18:17 49.62273 6.19496 1177 ft 3 kts 62°
2026-04-27 18:17 49.62297 6.19560 1182 ft 10 kts 60°
2026-04-27 18:17 49.62317 6.19617 1182 ft 6 kts 62°
2026-04-27 18:17 49.62334 6.19665 1185 ft 3 kts 59°
2026-04-27 18:18 49.62346 6.19698 1191 ft 11 kts 59°
2026-04-27 18:18 49.62380 6.19768 1193 ft 4 kts 344°
2026-04-27 18:18 49.62416 6.19762 1195 ft 6 kts 120°
2026-04-27 18:18 49.62403 6.19778 1195 ft 0 kts 145°
2026-04-27 18:21 49.62387 6.19785 1194 ft 5 kts 198°
2026-04-27 18:21 49.62372 6.19777 1193 ft 1 kts 166°
2026-04-27 18:21 49.62363 6.19785 1194 ft 7 kts 143°
2026-04-27 18:21 49.62298 6.19747 1190 ft 16 kts 245°
2026-04-27 18:22 49.62239 6.19589 1182 ft 10 kts 242°
2026-04-27 18:22 49.62183 6.19554 1180 ft 8 kts 155°
2026-04-27 18:22 49.62141 6.19589 1184 ft 10 kts 149°
2026-04-27 18:22 49.62096 6.19669 1187 ft 10 kts 45°
2026-04-27 18:23 49.62109 6.19705 1190 ft 12 kts 62°
2026-04-27 18:23 49.62245 6.20079 1219 ft 64 kts 59°
2026-04-27 18:23 49.62504 6.20801 1383 ft 86 kts 60°
2026-04-27 18:23 49.62815 6.21637 1640 ft 91 kts 59°
2026-04-27 18:24 49.62785 6.22578 1791 ft 102 kts 127°
2026-04-27 18:24 49.62141 6.23077 1936 ft 106 kts 154°
2026-04-27 18:24 49.61451 6.23444 2088 ft 107 kts 165°
2026-04-27 18:24 49.60733 6.23037 2085 ft 121 kts 225°
2026-04-27 18:25 49.60367 6.21906 2055 ft 117 kts 248°
2026-04-27 18:25 49.60056 6.20736 2063 ft 118 kts 244°
2026-04-27 18:25 49.59693 6.19593 2070 ft 117 kts 241°
2026-04-27 18:25 49.59501 6.18384 1960 ft 115 kts 274°
2026-04-27 18:26 49.59721 6.17317 1846 ft 99 kts 308°
2026-04-27 18:26 49.60242 6.16732 1680 ft 91 kts 347°
2026-04-27 18:26 49.60828 6.16770 1567 ft 83 kts 24°
2026-04-27 18:26 49.61215 6.17326 1433 ft 74 kts 59°
2026-04-27 18:27 49.61458 6.18038 1533 ft 76 kts 60°
2026-04-27 18:27 49.61737 6.18736 1725 ft 79 kts 59°
2026-04-27 18:27 49.62031 6.19501 1881 ft 85 kts 62°
2026-04-27 18:27 49.62330 6.20306 2017 ft 85 kts 61°
2026-04-27 18:28 49.62618 6.21062 2041 ft 80 kts 62°
2026-04-27 18:28 49.62842 6.21813 2077 ft 76 kts 89°
2026-04-27 18:28 49.62535 6.22527 2082 ft 88 kts 142°
2026-04-27 18:28 49.62013 6.22997 2086 ft 86 kts 144°
2026-04-27 18:29 49.61475 6.23379 2083 ft 86 kts 163°
2026-04-27 18:29 49.60887 6.23183 2008 ft 95 kts 214°
2026-04-27 18:29 49.60513 6.22332 1833 ft 92 kts 241°
2026-04-27 18:29 49.60245 6.21442 1696 ft 93 kts 251°
2026-04-27 18:30 49.60246 6.20455 1611 ft 91 kts 287°
2026-04-27 18:30 49.60506 6.19603 1577 ft 86 kts 307°
2026-04-27 18:30 49.60854 6.18836 1554 ft 89 kts 314°
2026-04-27 18:30 49.61350 6.18385 1510 ft 82 kts
2026-04-27 18:31 49.61783 6.18813 1351 ft 76 kts 64°
2026-04-27 18:31 49.62029 6.19499 1200 ft 70 kts 60°
2026-04-27 18:31 49.62230 6.20039 1211 ft 46 kts 59°
2026-04-27 18:31 49.62423 6.20581 1327 ft 69 kts 62°
2026-04-27 18:32 49.62647 6.21261 1616 ft 73 kts 63°
2026-04-27 18:32 49.62864 6.21999 1874 ft 79 kts 80°
2026-04-27 18:32 49.62518 6.22730 2006 ft 102 kts 147°
2026-04-27 18:32 49.61888 6.23222 2111 ft 100 kts 148°
2026-04-27 18:33 49.61250 6.23669 2072 ft 103 kts 163°
2026-04-27 18:33 49.60609 6.23224 1952 ft 109 kts 233°
2026-04-27 18:33 49.60346 6.22147 1846 ft 112 kts 253°
2026-04-27 18:33 49.60199 6.21021 1831 ft 105 kts 269°
2026-04-27 18:34 49.60390 6.19975 1790 ft 99 kts 304°
2026-04-27 18:34 49.60749 6.19097 1740 ft 96 kts 308°
2026-04-27 18:34 49.61180 6.18382 1582 ft 87 kts 340°
2026-04-27 18:34 49.61687 6.18581 1396 ft 79 kts 57°
2026-04-27 18:35 49.61949 6.19299 1231 ft 74 kts 60°
2026-04-27 18:35 49.62177 6.19897 1204 ft 54 kts 60°
2026-04-27 18:35 49.62357 6.20379 1243 ft 66 kts 60°
2026-04-27 18:35 49.62578 6.21073 1465 ft 78 kts 65°
2026-04-27 18:36 49.62808 6.21859 1780 ft 80 kts 78°
2026-04-27 18:36 49.62501 6.22617 1954 ft 97 kts 146°
2026-04-27 18:36 49.61916 6.23025 2012 ft 88 kts 152°
2026-04-27 18:36 49.61339 6.23326 1997 ft 88 kts 163°
2026-04-27 18:37 49.60749 6.23010 1909 ft 99 kts 225°
2026-04-27 18:37 49.60414 6.22070 1804 ft 104 kts 249°
2026-04-27 18:37 49.60231 6.20991 1783 ft 105 kts 269°
2026-04-27 18:37 49.60416 6.19930 1752 ft 102 kts 304°
2026-04-27 18:38 49.60771 6.19088 1731 ft 91 kts 308°
2026-04-27 18:38 49.61193 6.18458 1569 ft 82 kts 345°
2026-04-27 18:38 49.61697 6.18593 1369 ft 76 kts 48°
2026-04-27 18:38 49.61940 6.19255 1211 ft 68 kts 62°
2026-04-27 18:39 49.62139 6.19795 1196 ft 45 kts 60°
2026-04-27 18:39 49.62315 6.20283 1290 ft 64 kts 61°
2026-04-27 18:39 49.62546 6.20943 1538 ft 72 kts 61°
2026-04-27 18:39 49.62777 6.21646 1814 ft 76 kts 64°
2026-04-27 18:40 49.63246 6.22074 2064 ft 92 kts 12°
2026-04-27 18:40 49.63913 6.21981 2112 ft 98 kts 351°
2026-04-27 18:40 49.64551 6.21618 2112 ft 96 kts 350°
2026-04-27 18:40 49.64985 6.21423 2078 ft 100 kts 350°
2026-04-27 18:41 49.65667 6.21193 2038 ft 101 kts 355°
2026-04-27 18:41 49.66374 6.20961 2029 ft 106 kts 353°
2026-04-27 18:41 49.67338 6.20724 2030 ft 106 kts 359°
2026-04-27 18:41 49.68070 6.20574 2035 ft 103 kts 358°
2026-04-27 18:42 49.68544 6.20474 2033 ft 102 kts 358°
2026-04-27 18:42 49.69013 6.20368 2039 ft 102 kts 358°
2026-04-27 18:42 49.69942 6.20171 2029 ft 102 kts 359°
2026-04-27 18:42 49.70644 6.19942 2033 ft 104 kts 352°
2026-04-27 18:43 49.71347 6.19655 2033 ft 103 kts 352°
2026-04-27 18:43 49.72042 6.19378 2035 ft 102 kts 352°
2026-04-27 18:43 49.72733 6.19102 2037 ft 103 kts 352°
2026-04-27 18:43 49.73422 6.18914 2030 ft 100 kts 356°
2026-04-27 18:44 49.74110 6.18723 2043 ft 100 kts 356°
2026-04-27 18:44 49.74808 6.18509 2052 ft 108 kts 356°
2026-04-27 18:44 49.75565 6.18282 2048 ft 114 kts 356°
2026-04-27 18:44 49.76358 6.18056 2050 ft 117 kts 356°
2026-04-27 18:45 49.77164 6.17839 2048 ft 118 kts 356°
2026-04-27 18:45 49.77971 6.17631 2049 ft 117 kts 356°
2026-04-27 18:45 49.78766 6.17399 2048 ft 117 kts 350°
2026-04-27 18:45 49.79550 6.16997 2052 ft 119 kts 347°
2026-04-27 18:46 49.80335 6.16589 2043 ft 119 kts 347°
2026-04-27 18:46 49.81123 6.16191 2043 ft 119 kts 347°
2026-04-27 18:46 49.81921 6.15812 2042 ft 121 kts 347°
2026-04-27 18:46 49.82726 6.15420 2043 ft 121 kts 346°
2026-04-27 18:47 49.83529 6.15043 2038 ft 121 kts 347°
2026-04-27 18:47 49.84333 6.14690 2054 ft 119 kts 349°
2026-04-27 18:47 49.85126 6.14349 2059 ft 118 kts 350°
2026-04-27 18:47 49.85909 6.14083 2048 ft 117 kts 352°
2026-04-27 18:48 49.86596 6.13455 2075 ft 121 kts 304°
2026-04-27 18:48 49.86556 6.12220 2054 ft 120 kts 230°
2026-04-27 18:48 49.85843 6.11734 1970 ft 114 kts 171°
2026-04-27 18:48 49.85266 6.12417 1953 ft 108 kts 112°
2026-04-27 18:49 49.85259 6.13523 1999 ft 106 kts 68°
2026-04-27 18:49 49.85810 6.14270 2006 ft 111 kts 21°
2026-04-27 18:49 49.86568 6.14111 2047 ft 116 kts 335°
2026-04-27 18:49 49.86953 6.13045 2067 ft 122 kts 267°
2026-04-27 18:50 49.86560 6.11932 2049 ft 120 kts 214°
2026-04-27 18:50 49.85843 6.11294 2035 ft 119 kts 205°
2026-04-27 18:50 49.85124 6.10622 2026 ft 122 kts 209°
2026-04-27 18:50 49.84415 6.09975 2078 ft 116 kts 201°
2026-04-27 18:51 49.83656 6.09530 2086 ft 117 kts 192°
2026-04-27 18:51 49.82872 6.09233 2099 ft 116 kts 187°
2026-04-27 18:51 49.82072 6.09003 2097 ft 119 kts 184°
2026-04-27 18:51 49.81234 6.08814 2061 ft 122 kts 184°
2026-04-27 18:52 49.80395 6.08772 2069 ft 120 kts 165°
2026-04-27 18:52 49.79587 6.08998 2098 ft 116 kts 165°
2026-04-27 18:52 49.78800 6.09208 2085 ft 115 kts 162°
2026-04-27 18:53 49.77225 6.09706 2079 ft 116 kts 161°
2026-04-27 18:53 49.76439 6.10002 2081 ft 115 kts 160°
2026-04-27 18:53 49.75662 6.10295 2098 ft 115 kts 159°
2026-04-27 18:53 49.74945 6.10782 2047 ft 113 kts 144°
2026-04-27 18:54 49.74277 6.11400 2046 ft 111 kts 142°
2026-04-27 18:54 49.73638 6.12030 2038 ft 106 kts 142°
2026-04-27 18:54 49.73046 6.12630 2048 ft 100 kts 138°
2026-04-27 18:54 49.72499 6.13298 2040 ft 102 kts 134°
2026-04-27 18:55 49.71948 6.14016 2043 ft 105 kts 134°
2026-04-27 18:55 49.71382 6.14699 2049 ft 105 kts 143°
2026-04-27 18:55 49.70720 6.15231 2035 ft 110 kts 148°
2026-04-27 18:55 49.70018 6.15739 2046 ft 110 kts 149°
2026-04-27 18:56 49.69313 6.16214 2055 ft 109 kts 150°
2026-04-27 18:56 49.68641 6.16713 2128 ft 105 kts 145°
2026-04-27 18:56 49.67998 6.17291 2130 ft 110 kts 145°
2026-04-27 18:56 49.67312 6.17882 2113 ft 115 kts 146°
2026-04-27 18:57 49.66623 6.18460 2062 ft 113 kts 146°
2026-04-27 18:57 49.65928 6.19031 2040 ft 112 kts 150°
2026-04-27 18:57 49.65170 6.19300 2045 ft 112 kts 167°
2026-04-27 18:57 49.64391 6.19291 2021 ft 112 kts 191°
2026-04-27 18:58 49.63766 6.18682 1915 ft 98 kts 216°
2026-04-27 18:58 49.63227 6.18211 1764 ft 82 kts 192°
2026-04-27 18:58 49.62663 6.18029 1626 ft 83 kts 187°
2026-04-27 18:58 49.62106 6.17994 1497 ft 77 kts 166°
2026-04-27 18:59 49.61732 6.18422 1336 ft 67 kts 105°
2026-04-27 18:59 49.61873 6.19078 1231 ft 66 kts 61°
2026-04-27 18:59 49.62089 6.19663 1191 ft 55 kts 60°
2026-04-27 18:59 49.62245 6.20077 1213 ft 39 kts 60°
2026-04-27 19:00 49.62366 6.20404 1223 ft 30 kts 59°
2026-04-27 19:00 49.62439 6.20546 1226 ft 11 kts
2026-04-27 19:00 49.62506 6.20508 1228 ft 13 kts 329°